Hourly Data Report for October 15, 2016

All times are specified in Local Standard Time (LST). Add 1 hour to adjust for Daylight Saving Time where and when it is observed.

BATHURST A
NEW BRUNSWICK

47°37'47.000" N
65°44'20.000" W
58.80 m
8100505
71574
ZBF

Download Data

Hourly Data (October 2016)
Hourly Data Report for October 15, 2016
Temp Definition
°C
Dew Point Temp Definition
°C
Rel Hum Definition
%
Wind Dir Definition
10's deg

Wind Spd Definition
km/h
Visibility Definition
km
Stn Press Definition
kPa
Hmdx Definition


Wind Chill Definition


Weather Definition


TIME
00:00 Legend Double Dagger -1.4 -3.8 84 19 7 24.1 102.05   -4 LegendNANA
01:00 Legend Double Dagger -1.2 -3.3 86 24 3 24.1 102.08   -2 LegendNANA
02:00 Legend Double Dagger -1.7 -3.6 87 21 5 24.1 102.15   -4 Cloudy
03:00 Legend Double Dagger -1.1 -3.5 84 29 7 24.1 102.15   -4 LegendNANA
04:00 Legend Double Dagger 0.5 -3.6 74 28 5 24.1 102.19     LegendNANA
05:00 Legend Double Dagger -2.1 -4.1 86 36 2 24.1 102.22   -3 Clear
06:00 Legend Double Dagger -3.4 -4.7 91 20 3 24.1 102.20   -5 LegendNANA
07:00 Legend Double Dagger -3.8 -5.2 90 36 3 24.1 102.28   -5 LegendNANA
08:00 Legend Double Dagger -0.6 -2.8 85 12 3 24.1 102.36   -2 Mostly Cloudy
09:00 Legend Double Dagger 2.8 -1.8 72 13 4 24.1 102.37     LegendNANA
10:00 Legend Double Dagger 5.7 -1.0 62 15 4 24.1 102.39     LegendNANA
11:00 Legend Double Dagger 7.9 -2.1 49 20 5 24.1 102.33     Mainly Clear
12:00 Legend Double Dagger 9.3 -4.3 38 14 8 24.1 102.27     LegendNANA
13:00 Legend Double Dagger 10.1 -3.6 38 11 4 24.1 102.18     LegendNANA
14:00 Legend Double Dagger 10.6 -5.4 32 16 15 24.1 102.11     Mostly Cloudy
15:00 Legend Double Dagger 11.4 -4.3 33 19 13 24.1 102.02     LegendNANA
16:00 Legend Double Dagger 10.9 -5.1 32 20 11 24.1 101.97     LegendNANA
17:00 Legend Double Dagger 9.7 -4.6 36 18 9 24.1 101.95     Mostly Cloudy
18:00 Legend Double Dagger 7.6 -4.5 42 19 8 24.1 101.89     LegendNANA
19:00 Legend Double Dagger 6.7 -4.4 45 20 5 24.1 101.90     LegendNANA
20:00 Legend Double Dagger 5.6 -3.7 51 18 4 24.1 101.88     Mostly Cloudy
21:00 Legend Double Dagger 4.8 -1.6 63 19 6 24.1 101.85     LegendNANA
22:00 Legend Double Dagger 4.7 -0.9 67 20 7 24.1 101.82     LegendNANA
23:00 Legend Double Dagger 4.8 -0.8 67 18 9 24.1 101.70     Cloudy

Notes on Data Quality.

Legend

  • E = Estimated
  • M = Missing
  • NA = Not Available
  • ‡ = Partner data that is not subject to review by the National Climate Archives
Date modified: